Location: Ferchesar
(52.6477°N, 12.4298°E)
Time: 05:29:39
(UTC+02:00)

Transit 4A - Pass Details

Date: 02 March 2021
Orbit: 869 x 976 km, 66.8° (Epoch: 12 April)

Event Time Altitude Azimuth Distance (km) Brightness Sun altitude
Rises 13:49:32 0° 271° (W) 3,655 11.3 27.5°
Reaches altitude 10° 13:52:34 10° 284° (WNW) 2,697 10.6 27.3°
Maximum altitude 13:57:48 27° 340° (NNW) 1,753 9.2 27.0°
Drops below altitude 10° 14:02:57 10° 37° (NE) 2,644 9.8 26.6°
Sets 14:05:54 0° 49° (NE) 3,570 10.4 26.4°
